CDT,Max TemperatureF,Mean TemperatureF,Min TemperatureF,Max Dew PointF,MeanDew PointF,Min DewpointF,Max Humidity, Mean Humidity, Min Humidity, Max Sea Level PressureIn, Mean Sea Level PressureIn, Min Sea Level PressureIn, Max VisibilityMiles, Mean VisibilityMiles, Min VisibilityMiles, Max Wind SpeedMPH, Mean Wind SpeedMPH, Max Gust SpeedMPH,PrecipitationIn, CloudCover, Events, WindDirDegrees
2013-9-1,84,73,62,70,64,57,93,68,43,29.84,29.78,29.72,10,9,4,13,5,20,0.00,4,,258
2013-9-2,72,61,50,59,55,50,97,73,49,30.02,29.95,29.84,10,10,10,15,5,23,0.00,4,,342
2013-9-3,73,60,46,56,51,46,100,73,46,30.12,30.06,30.02,10,9,2,8,2,,0.00,0,Fog,308
2013-9-4,84,67,50,64,57,50,100,74,47,30.12,30.08,30.04,10,10,9,12,3,,0.00,0,,307
2013-9-5,77,68,58,63,58,47,93,73,53,30.27,30.21,30.14,10,10,9,15,7,20,0.00,4,,91
2013-9-6,87,70,53,65,57,47,78,62,45,30.22,30.12,29.97,10,10,10,14,6,18,0.00,2,,179
2013-9-7,90,80,70,71,66,61,87,69,51,29.97,29.92,29.86,10,10,8,18,5,25,0.00,1,,215
2013-9-8,73,68,63,66,62,57,90,84,78,30.07,30.02,29.96,10,10,9,20,10,26,0.00,7,,76
2013-9-9,93,79,65,73,68,62,93,73,52,29.96,29.85,29.75,10,8,4,18,8,21,0.00,3,,173
2013-9-10,94,84,74,66,62,59,62,47,32,29.94,29.89,29.81,10,10,10,16,7,25,T,1,,222
2013-9-11,82,73,64,70,65,63,100,79,58,30.06,30.01,29.96,10,9,4,16,3,26,0.26,4,Rain-Thunderstorm,251
2013-9-12,76,65,53,61,54,47,100,72,44,30.15,30.03,29.98,10,10,10,18,8,28,0.00,1,,331
2013-9-13,67,56,44,46,41,35,92,62,32,30.25,30.19,30.16,10,10,10,15,6,20,0.00,0,,11
2013-9-14,72,56,40,46,43,39,100,69,37,30.18,30.10,30.00,10,10,10,14,5,17,0.00,0,,198
2013-9-15,63,59,54,56,53,45,100,76,52,30.24,30.05,29.97,10,8,1,18,6,24,0.70,7,Rain,55
2013-9-16,66,54,41,52,44,37,93,69,44,30.42,30.35,30.24,10,10,10,17,6,22,0.00,2,,49
2013-9-17,71,56,40,56,48,39,100,76,51,30.36,30.25,30.09,10,9,6,18,7,22,0.06,3,Rain,164
2013-9-18,76,68,60,66,60,55,90,77,64,30.08,29.97,29.88,10,10,7,18,10,26,0.06,5,Rain,176
2013-9-19,87,77,67,71,67,64,93,74,55,29.89,29.82,29.70,10,7,0,20,9,32,1.94,5,Fog-Rain-Thunderstorm,187
2013-9-20,70,63,55,66,60,52,93,76,58,29.84,29.79,29.72,10,10,9,16,6,24,T,6,,265
2013-9-21,61,53,44,53,47,44,100,79,57,29.97,29.91,29.85,10,10,10,15,6,22,0.00,4,,324
2013-9-22,65,53,41,45,43,40,100,74,48,30.10,30.04,29.98,10,10,9,12,4,15,0.00,0,,74
2013-9-23,68,55,41,51,46,41,100,74,48,30.13,30.08,30.04,10,10,7,14,6,17,0.00,0,,121
2013-9-24,72,56,40,51,47,41,100,72,44,30.06,30.02,29.96,10,7,1,15,5,17,0.00,0,,112
2013-9-25,72,57,42,55,48,43,100,75,49,30.01,29.99,29.95,10,6,0,13,5,18,0.00,2,Fog,28
2013-9-26,76,59,42,56,48,41,100,69,38,30.09,30.05,30.00,10,4,0,15,5,18,0.00,1,Fog,140
2013-9-27,81,63,45,54,49,45,100,67,33,30.14,30.09,30.04,10,7,1,20,7,23,0.00,0,,159
2013-9-28,80,67,53,66,56,46,93,71,48,30.03,29.93,29.83,10,8,2,29,12,35,0.17,5,Rain,211
2013-9-29,70,57,43,52,45,36,100,65,30,30.08,30.03,29.99,10,8,0,8,2,10,0.00,0,Fog,193
2013-9-30,73,60,47,49,45,41,86,60,34,29.99,29.91,29.82,10,10,10,18,8,24,0.00,0,,183